Regional Weather Roundup
Issued by NWS

Home | Current Version | Previous Version | Text Only | Print | Product List | Glossary Off
Versions: 1 2 3 4 5 6 7 8 9 10 11 12 13 14 15 16 17 18 19 20 21 22 23 24 25 26 27 28

000
ASUS45 KCYS 210710
RWRWY

WYOMING REGIONAL WEATHER ROUNDUP
NATIONAL WEATHER SERVICE CHEYENNE WY
100 AM MDT SAT OCT 21 2017

NOTE:  "FAIR" INDICATES FEW OR NO CLOUDS BELOW 12,000 FEET
WITH NO SIGNIFICANT WEATHER AND/OR OBSTRUCTIONS TO VISIBILITY.

WYZ001-210800-
YELLOWSTONE NATIONAL PARK

CITY           SKY/WX    TMP DP  RH WIND       PRES   REMARKS
LK YELLOWSTONE   N/A     24  20  84 VRB6      29.87R WCI  17
W YELLOWSTONE  NOT AVBL

$$
WYZ002>013-054>058-071-098>099-210800-
NORTHERN WYOMING

CITY           SKY/WX    TMP DP  RH WIND       PRES   REMARKS
JACKSON        CLOUDY    27  25  92 SE8       29.91R WCI  19
CODY           FAIR      40  21  46 W18G30    29.74R WCI  31
GREYBULL       FAIR      39  22  50 NW5       29.73R
WORLAND        FAIR      42  24  49 N3        29.74R
SHERIDAN       FAIR      44  22  41 NW13      29.68R
BUFFALO        FAIR      43  16  33 N23G32    29.65R
GILLETTE       FAIR      44  24  45 NW23G30   29.66R
HULETT         FAIR      46  28  49 W9G18     29.64R
NEWCASTLE      LGT RAIN  43  37  81 NW8       29.64R

$$
WYZ014>020-022>026-101>103-210800-
CENTRAL WYOMING

CITY           SKY/WX    TMP DP  RH WIND       PRES   REMARKS
BIG PINEY      FAIR      25  20  81 NE5       29.91R WCI  19
PINEDALE       PTSUNNY   25  21  86 SW3       29.91R
DUBOIS         CLOUDY    28  19  69 NW13      29.83R WCI  18
LANDER         FAIR      35  21  56 NW7       29.81R WCI  29
RIVERTON       FAIR      37  23  56 W26       29.77R WCI  25
CASPER         FAIR      42  14  32 W22G32    29.73R
DOUGLAS        FAIR      46  17  31 W21G29    29.71R

$$
WYZ021-027>030-104>119-210800-
SOUTHERN WYOMING

CITY           SKY/WX    TMP DP  RH WIND       PRES   REMARKS
EVANSTON       FAIR      28  19  69 W15       29.99R WCI  16
FORT BRIDGER   FAIR      27  22  81 W8        30.00R WCI  18
ROCK SPRINGS   FAIR      29  19  66 W21       29.93R WCI  16
DIXON          CLOUDY    29  27  92 CALM      29.97R
RAWLINS        FAIR      32  19  58 W25G36    29.87R WCI  19
SARATOGA       FAIR      30  23  74 W12       29.90S WCI  21
LARAMIE        CLOUDY    34  28  79 VRB3      29.80R
CHEYENNE       FAIR      41  25  53 NW29G49   29.65R
TORRINGTON     FAIR      52  28  39 W16G32    29.61S
PINE BLUFFS    FAIR      43  30  61 MISG      29.63R

$$




USA.gov is the U.S. government's official web portal to all federal, state and local government web resources and services.